Terminal Aerodrome Forecast
Issued by NWS

Home | Current Version | Previous Version | Graphics & Text | Print | Product List | Glossary On
Versions: 1 2 3 4 5 6 7 8 9 10 11 12 13 14 15 16 17 18 19
000
FTUS42 KMHX 170900 AAB
TAFISO
TAF AMD
KISO 170903Z 1709/1806 00000KT 5SM BR OVC008
     FM171300 04005KT P6SM VCSH OVC050
     FM171900 04005KT P6SM VCSH BKN050
      AMD LTD TO CLD VIS AND WIND=

USA.gov is the U.S. government's official web portal to all federal, state and local government web resources and services.